Terug naar catalogus

STARLINK-33987

ActiefCommunicatieVLEO
NORAD 63873·PAYLOAD·🇺🇸 United States

Gelanceerd May 10, 2025 vanaf Vandenberg Space Force Base

Loading…

Volgende Passages (komende 24 uur)

TLE

VersSource: CelesTrak SupGP

Epoch: Sep 14, 2026, 21:30 UTC

1 63873C 25094K   26257.89631944 -.00005124  00000+0 -17380-3 0  2575
2 63873  69.9994 115.7867 0002853 266.0112 146.9147 15.30399347    13

Volg STARLINK-33987 in realtime met AllMySat

Download on the App Store